Back to catalog

STARLINK-35411

AliveCommunicationsVLEO
NORAD 66560·PAYLOAD·🇺🇸 United States

Launched Nov 21, 2025 from Cape Canaveral Space Force Station

Loading…

Next Passes (next 24 hours)

TLE

FreshSource: CelesTrak SupGP

Epoch: Sep 14, 2026, 15:04 UTC

1 66560C 25268D   26257.62826389  .00021806  00000+0  79005-3 0  2579
2 66560  43.0041   0.0940 0001521 279.3658 124.3662 15.27558106    14

Track STARLINK-35411 in real time with AllMySat

Download on the App Store